TimePDT,TemperatureF,Dew PointF,Humidity,Sea Level PressureIn,VisibilityMPH,Wind Direction,Wind SpeedMPH,Gust SpeedMPH,PrecipitationIn,Events,Conditions,WindDirDegrees,DateUTC
12:15 AM,70.5,56.7,61,30.12,10.0,Calm,Calm,-,N/A,,Clear,0,2013-06-30 07:15:00
12:35 AM,69.3,56.3,63,30.13,10.0,Calm,Calm,-,N/A,,Clear,0,2013-06-30 07:35:00
12:55 AM,70.5,56.3,61,30.13,10.0,Calm,Calm,-,N/A,,Clear,0,2013-06-30 07:55:00
1:15 AM,70.2,56.3,61,30.12,10.0,Calm,Calm,-,N/A,,Clear,0,2013-06-30 08:15:00
1:35 AM,70.2,55.8,60,30.12,10.0,Calm,Calm,-,N/A,,Clear,0,2013-06-30 08:35:00
1:55 AM,69.3,55.8,62,30.12,10.0,Calm,Calm,-,N/A,,Clear,0,2013-06-30 08:55:00
2:15 AM,69.4,55.8,62,30.12,10.0,Calm,Calm,-,N/A,,Clear,0,2013-06-30 09:15:00
2:35 AM,64.6,57.2,77,30.12,10.0,East,4.6,-,N/A,,Clear,80,2013-06-30 09:35:00
2:55 AM,64.8,57.6,77,30.12,10.0,East,3.5,-,N/A,,Clear,80,2013-06-30 09:55:00
3:15 AM,64.8,57.7,78,30.13,10.0,East,8.1,-,N/A,,Clear,100,2013-06-30 10:15:00
3:35 AM,64.8,57.2,76,30.12,10.0,East,6.9,-,N/A,,Clear,100,2013-06-30 10:35:00
3:55 AM,64.2,56.8,77,30.12,10.0,East,4.6,-,N/A,,Clear,90,2013-06-30 10:55:00
4:15 AM,63.9,56.5,77,30.12,10.0,East,5.8,-,N/A,,Clear,90,2013-06-30 11:15:00
4:35 AM,61.7,56.3,82,30.12,10.0,East,4.6,-,N/A,,Clear,100,2013-06-30 11:35:00
4:55 AM,60.8,55.8,83,30.13,10.0,ESE,9.2,-,N/A,,Clear,110,2013-06-30 11:55:00
5:15 AM,62.2,55.8,79,30.13,10.0,SE,8.1,-,N/A,,Clear,130,2013-06-30 12:15:00
5:35 AM,62.1,55.8,80,30.13,10.0,East,5.8,-,N/A,,Clear,100,2013-06-30 12:35:00
5:55 AM,61.7,55.9,81,30.13,10.0,SE,3.5,-,N/A,,Clear,140,2013-06-30 12:55:00
6:15 AM,63.0,56.5,79,30.13,10.0,East,4.6,-,N/A,,Clear,100,2013-06-30 13:15:00
6:35 AM,64.8,56.5,74,30.14,10.0,ESE,5.8,-,N/A,,Clear,110,2013-06-30 13:35:00
6:55 AM,65.5,56.8,74,30.14,10.0,SE,5.8,-,N/A,,Clear,130,2013-06-30 13:55:00
7:15 AM,66.6,56.7,70,30.14,10.0,ESE,5.8,-,N/A,,Clear,110,2013-06-30 14:15:00
7:35 AM,67.1,56.7,69,30.14,10.0,East,4.6,-,N/A,,Clear,90,2013-06-30 14:35:00
7:55 AM,68.9,57.0,66,30.14,10.0,SE,6.9,-,N/A,,Clear,130,2013-06-30 14:55:00
8:15 AM,70.0,57.9,65,30.14,10.0,East,3.5,-,N/A,,Clear,100,2013-06-30 15:15:00
8:35 AM,71.6,57.7,62,30.14,10.0,East,3.5,-,N/A,,Clear,90,2013-06-30 15:35:00
8:55 AM,73.4,58.1,59,30.14,10.0,Calm,Calm,-,N/A,,Clear,0,2013-06-30 15:55:00
9:15 AM,74.8,57.7,55,30.13,10.0,Calm,Calm,-,N/A,,Clear,0,2013-06-30 16:15:00
9:35 AM,76.1,58.1,54,30.13,10.0,Calm,Calm,-,N/A,,Clear,0,2013-06-30 16:35:00
9:55 AM,77.9,58.5,51,30.12,10.0,East,3.5,-,N/A,,Clear,100,2013-06-30 16:55:00
10:15 AM,78.8,57.2,47,30.12,10.0,Calm,Calm,-,N/A,,Clear,0,2013-06-30 17:15:00
10:35 AM,81.1,56.8,43,30.11,10.0,Calm,Calm,-,N/A,,Clear,0,2013-06-30 17:35:00
10:55 AM,82.4,56.5,41,30.11,10.0,ENE,3.5,-,N/A,,Clear,60,2013-06-30 17:55:00
11:15 AM,83.5,55.6,38,30.10,10.0,Calm,Calm,-,N/A,,Clear,0,2013-06-30 18:15:00
11:35 AM,84.7,55.2,36,30.10,10.0,Calm,Calm,-,N/A,,Clear,0,2013-06-30 18:35:00
11:55 AM,88.3,53.2,30,30.09,7.0,ENE,4.6,-,N/A,,Clear,60,2013-06-30 18:55:00
12:15 PM,89.6,41.9,19,30.08,10.0,ENE,4.6,-,N/A,,Clear,60,2013-06-30 19:15:00
12:35 PM,90.7,37.2,15,30.07,10.0,NE,4.6,-,N/A,,Clear,50,2013-06-30 19:35:00
12:55 PM,91.8,45.9,20,30.07,10.0,NNE,4.6,-,N/A,,Clear,20,2013-06-30 19:55:00
1:15 PM,91.6,46.2,21,30.06,10.0,ENE,4.6,-,N/A,,Clear,70,2013-06-30 20:15:00
1:35 PM,92.8,47.3,21,30.05,10.0,Calm,Calm,-,N/A,,Clear,0,2013-06-30 20:35:00
1:55 PM,94.6,47.8,20,30.04,10.0,Calm,Calm,-,N/A,,Clear,0,2013-06-30 20:55:00
2:15 PM,94.3,47.5,20,30.04,10.0,NNW,4.6,-,N/A,,Clear,330,2013-06-30 21:15:00
2:35 PM,94.6,48.0,20,30.03,10.0,North,5.8,-,N/A,,Clear,360,2013-06-30 21:35:00
2:55 PM,96.1,47.7,19,30.03,10.0,Calm,Calm,-,N/A,,Clear,0,2013-06-30 21:55:00
3:15 PM,96.6,46.8,18,30.01,10.0,ENE,5.8,-,N/A,,Clear,60,2013-06-30 22:15:00
3:35 PM,96.6,46.9,18,30.01,10.0,NW,5.8,-,N/A,,Clear,320,2013-06-30 22:35:00
3:55 PM,96.8,44.8,17,30.00,10.0,ENE,8.1,-,N/A,,Clear,60,2013-06-30 22:55:00
4:15 PM,98.1,46.8,17,29.99,10.0,North,5.8,-,N/A,,Clear,10,2013-06-30 23:15:00
4:35 PM,97.2,45.0,17,29.99,10.0,NNW,6.9,-,N/A,,Clear,340,2013-06-30 23:35:00
4:55 PM,96.8,43.0,16,29.98,10.0,ENE,3.5,-,N/A,,Clear,70,2013-06-30 23:55:00
5:15 PM,97.7,43.5,16,29.98,10.0,Calm,Calm,-,N/A,,Clear,0,2013-07-01 00:15:00
5:35 PM,97.3,45.1,17,29.98,10.0,NW,3.5,-,N/A,,Clear,320,2013-07-01 00:35:00
5:55 PM,97.2,43.3,16,29.97,10.0,Calm,Calm,-,N/A,,Clear,0,2013-07-01 00:55:00
6:15 PM,97.7,45.1,17,29.97,10.0,NW,4.6,-,N/A,,Clear,320,2013-07-01 01:15:00
6:35 PM,94.1,53.1,25,29.96,10.0,North,10.4,16.1,N/A,,Clear,350,2013-07-01 01:35:00
6:55 PM,92.5,56.7,30,29.97,10.0,North,8.1,-,N/A,,Clear,360,2013-07-01 01:55:00
7:15 PM,90.5,57.7,33,29.98,10.0,North,8.1,-,N/A,,Clear,360,2013-07-01 02:15:00
7:35 PM,88.9,58.5,36,29.98,10.0,Calm,Calm,-,N/A,,Clear,0,2013-07-01 02:35:00
7:55 PM,88.5,58.3,36,29.99,10.0,Calm,Calm,-,N/A,,Clear,0,2013-07-01 02:55:00
8:15 PM,88.9,57.7,35,29.99,10.0,Calm,Calm,-,N/A,,Clear,0,2013-07-01 03:15:00
8:35 PM,87.6,57.7,36,30.00,10.0,ESE,10.4,-,N/A,,Clear,120,2013-07-01 03:35:00
8:55 PM,88.5,54.1,31,30.00,10.0,SSE,6.9,-,N/A,,Clear,160,2013-07-01 03:55:00
9:15 PM,86.0,56.1,36,30.01,10.0,SW,4.6,-,N/A,,Clear,230,2013-07-01 04:15:00
9:35 PM,83.7,59.4,44,30.02,10.0,Calm,Calm,-,N/A,,Clear,0,2013-07-01 04:35:00
9:55 PM,84.6,59.0,42,30.03,10.0,South,3.5,-,N/A,,Clear,170,2013-07-01 04:55:00
10:15 PM,84.2,54.9,36,30.04,10.0,Calm,Calm,-,N/A,,Clear,0,2013-07-01 05:15:00
10:35 PM,84.2,53.8,35,30.03,10.0,NNE,3.5,-,N/A,,Clear,30,2013-07-01 05:35:00
10:55 PM,80.6,57.7,45,30.01,10.0,WNW,9.2,-,N/A,,Clear,290,2013-07-01 05:55:00
11:15 PM,82.4,55.0,39,30.01,10.0,West,4.6,-,N/A,,Clear,270,2013-07-01 06:15:00
11:35 PM,81.1,54.9,40,30.00,10.0,NW,6.9,-,N/A,,Clear,320,2013-07-01 06:35:00
11:55 PM,79.7,54.0,41,30.01,10.0,Calm,Calm,-,N/A,,Clear,0,2013-07-01 06:55:00